TimeCDT,TemperatureF,Dew PointF,Humidity,Sea Level PressureIn,VisibilityMPH,Wind Direction,Wind SpeedMPH,Gust SpeedMPH,PrecipitationIn,Events,Conditions,WindDirDegrees,DateUTC
12:52 AM,64.0,61.0,90,30.04,10.0,Calm,Calm,-,N/A,,Clear,0,2013-08-16 05:52:00
1:52 AM,64.9,61.0,87,30.04,10.0,Calm,Calm,-,N/A,,Clear,0,2013-08-16 06:52:00
2:52 AM,62.1,61.0,96,30.05,10.0,Calm,Calm,-,N/A,,Clear,0,2013-08-16 07:52:00
3:52 AM,62.1,60.1,93,30.06,10.0,Calm,Calm,-,N/A,,Partly Cloudy,0,2013-08-16 08:52:00
4:52 AM,63.0,60.1,90,30.07,10.0,ENE,4.6,-,N/A,,Scattered Clouds,70,2013-08-16 09:52:00
5:01 AM,62.6,60.8,94,30.08,10.0,East,4.6,-,N/A,,Mostly Cloudy,80,2013-08-16 10:01:00
5:52 AM,62.1,60.1,93,30.08,10.0,NE,3.5,-,N/A,,Mostly Cloudy,40,2013-08-16 10:52:00
6:27 AM,62.6,59.0,88,30.09,10.0,East,5.8,-,N/A,,Mostly Cloudy,90,2013-08-16 11:27:00
6:52 AM,62.1,59.0,90,30.09,10.0,Calm,Calm,-,N/A,,Partly Cloudy,0,2013-08-16 11:52:00
7:52 AM,63.0,60.1,90,30.11,10.0,Calm,Calm,-,N/A,,Overcast,0,2013-08-16 12:52:00
8:52 AM,64.0,60.1,87,30.12,10.0,East,4.6,-,N/A,,Overcast,80,2013-08-16 13:52:00
9:52 AM,69.1,62.1,78,30.12,10.0,East,6.9,-,N/A,,Mostly Cloudy,100,2013-08-16 14:52:00
10:52 AM,72.0,61.0,68,30.12,10.0,SE,4.6,-,N/A,,Overcast,130,2013-08-16 15:52:00
11:52 AM,73.9,62.1,66,30.12,10.0,SE,5.8,-,N/A,,Overcast,130,2013-08-16 16:52:00
12:52 PM,75.0,61.0,62,30.12,10.0,ESE,3.5,-,N/A,,Partly Cloudy,120,2013-08-16 17:52:00
1:52 PM,77.0,62.1,60,30.11,10.0,East,9.2,-,N/A,,Overcast,100,2013-08-16 18:52:00
2:52 PM,78.1,62.1,58,30.10,10.0,ESE,8.1,-,N/A,,Scattered Clouds,120,2013-08-16 19:52:00
3:52 PM,79.0,62.1,56,30.09,10.0,ESE,5.8,-,N/A,,Scattered Clouds,120,2013-08-16 20:52:00
4:52 PM,77.0,61.0,58,30.09,10.0,East,5.8,-,N/A,,Overcast,90,2013-08-16 21:52:00
5:52 PM,75.0,62.1,64,30.10,10.0,East,6.9,-,N/A,,Overcast,90,2013-08-16 22:52:00
6:52 PM,73.9,62.1,66,30.11,10.0,East,6.9,-,N/A,,Overcast,100,2013-08-16 23:52:00
7:52 PM,72.0,61.0,68,30.11,10.0,East,8.1,-,N/A,,Mostly Cloudy,90,2013-08-17 00:52:00
8:52 PM,69.1,60.1,73,30.12,10.0,East,4.6,-,N/A,,Mostly Cloudy,90,2013-08-17 01:52:00
9:52 PM,66.9,60.1,79,30.14,10.0,East,3.5,-,N/A,,Clear,80,2013-08-17 02:52:00
10:52 PM,66.0,60.1,81,30.14,10.0,East,4.6,-,N/A,,Clear,90,2013-08-17 03:52:00
11:52 PM,64.0,60.1,87,30.14,10.0,Calm,Calm,-,0.00,,Partly Cloudy,0,2013-08-17 04:52:00